• In Netherlands
  • List of Countries
  • For 7 days
  • Water Temperature
  • Satellite Maps
  • Weather Map
  • Weather Widgets
  • user-avatar
    Login

    Hourly Weather Yelsk

    Today, 17 August, Thursday

    Time Temperature Precipitation Wind Pressure Humidity
    00:00 +21°C° 1.1 mm 2 mps 750 mmHg 80%
    01:00 +20°C° 1.1 mm 2 mps 750 mmHg 85%
    02:00 +19°C° 0 mm 2 mps 751 mmHg 90%
    03:00 +19°C° 0.2 mm 2 mps 751 mmHg 90%
    04:00 +18°C° 0.2 mm 2 mps 751 mmHg 91%
    05:00 +18°C° 0.2 mm 2 mps 751 mmHg 92%
    06:00 +20°C° 0 mm 2 mps 751 mmHg 87%
    07:00 +21°C° 0 mm 2 mps 751 mmHg 81%
    08:00 +24°C° 0 mm 2 mps 751 mmHg 74%
    09:00 +26°C° 0 mm 2 mps 751 mmHg 65%
    10:00 +28°C° 0 mm 2 mps 751 mmHg 55%
    11:00 +30°C° 0 mm 2 mps 751 mmHg 46%
    12:00 +30°C° 0 mm 2 mps 751 mmHg 42%
    13:00 +31°C° 0 mm 2 mps 751 mmHg 39%
    14:00 +32°C° 0 mm 2 mps 750 mmHg 35%
    15:00 +32°C° 0 mm 2 mps 750 mmHg 36%
    16:00 +32°C° 0 mm 2 mps 750 mmHg 36%
    17:00 +31°C° 0 mm 2 mps 750 mmHg 37%
    18:00 +29°C° 0 mm 2 mps 750 mmHg 43%
    19:00 +27°C° 0 mm 2 mps 750 mmHg 48%
    20:00 +25°C° 0 mm 2 mps 750 mmHg 53%
    21:00 +24°C° 0 mm 2 mps 750 mmHg 55%
    22:00 +23°C° 0 mm 2 mps 750 mmHg 56%
    23:00 +21°C° 0 mm 2 mps 750 mmHg 58%

    Tomorrow, 18 August, Friday

    Time Temperature Precipitation Wind Pressure Humidity
    00:00 +21°C° 0 mm 2 mps 750 mmHg 60%
    01:00 +20°C° 0 mm 2 mps 750 mmHg 61%
    02:00 +21°C° 0 mm 1 mps 750 mmHg 63%
    03:00 +20°C° 0 mm 1 mps 750 mmHg 65%
    04:00 +20°C° 0 mm 1 mps 750 mmHg 67%
    05:00 +20°C° 0 mm 1 mps 750 mmHg 68%
    06:00 +21°C° 0 mm 2 mps 751 mmHg 64%
    07:00 +23°C° 0 mm 2 mps 751 mmHg 60%
    08:00 +25°C° 0 mm 2 mps 751 mmHg 56%
    09:00 +27°C° 0 mm 2 mps 751 mmHg 49%
    10:00 +29°C° 0 mm 2 mps 751 mmHg 42%
    11:00 +31°C° 0 mm 2 mps 751 mmHg 36%
    12:00 +31°C° 0 mm 2 mps 751 mmHg 33%
    13:00 +32°C° 0 mm 2 mps 750 mmHg 31%
    14:00 +32°C° 0 mm 2 mps 750 mmHg 29%
    15:00 +32°C° 0 mm 2 mps 750 mmHg 31%
    16:00 +31°C° 0 mm 2 mps 750 mmHg 33%
    17:00 +30°C° 0 mm 1 mps 750 mmHg 36%
    18:00 +28°C° 0 mm 1 mps 750 mmHg 40%
    19:00 +26°C° 0 mm 1 mps 750 mmHg 44%
    20:00 +24°C° 0 mm 1 mps 750 mmHg 48%
    21:00 +23°C° 0 mm 1 mps 750 mmHg 49%
    22:00 +23°C° 0 mm 1 mps 750 mmHg 50%
    23:00 +22°C° 0 mm 1 mps 750 mmHg 51%

    Day after tomorrow, 19 August, Saturday

    Time Temperature Precipitation Wind Pressure Humidity
    00:00 +21°C° 0 mm 2 mps 750 mmHg 52%
    01:00 +20°C° 0 mm 2 mps 750 mmHg 53%
    02:00 +20°C° 0 mm 2 mps 750 mmHg 55%
    03:00 +19°C° 0 mm 2 mps 750 mmHg 57%
    04:00 +19°C° 0 mm 2 mps 750 mmHg 59%
    05:00 +19°C° 0 mm 2 mps 750 mmHg 62%
    06:00 +21°C° 0 mm 2 mps 750 mmHg 58%
    07:00 +23°C° 0 mm 2 mps 750 mmHg 55%
    08:00 +25°C° 0 mm 3 mps 750 mmHg 52%
    09:00 +27°C° 0 mm 3 mps 750 mmHg 45%
    10:00 +30°C° 0 mm 3 mps 750 mmHg 39%
    11:00 +33°C° 0 mm 3 mps 750 mmHg 32%
    12:00 +34°C° 0 mm 4 mps 750 mmHg 29%
    13:00 +34°C° 0 mm 4 mps 750 mmHg 26%
    14:00 +35°C° 0 mm 4 mps 749 mmHg 24%
    15:00 +34°C° 0 mm 4 mps 749 mmHg 26%
    16:00 +33°C° 0 mm 3 mps 749 mmHg 29%
    17:00 +33°C° 0 mm 3 mps 749 mmHg 32%
    18:00 +30°C° 0 mm 3 mps 749 mmHg 35%
    19:00 +27°C° 0 mm 3 mps 749 mmHg 39%
    20:00 +25°C° 0 mm 3 mps 749 mmHg 43%
    21:00 +25°C° 0 mm 3 mps 749 mmHg 45%
    22:00 +24°C° 0 mm 3 mps 749 mmHg 46%
    23:00 +22°C° 0 mm 3 mps 748 mmHg 48%

    20 August, Sunday

    Time Temperature Precipitation Wind Pressure Humidity
    00:00 +21°C° 0 mm 3 mps 748 mmHg 51%
    01:00 +21°C° 0 mm 3 mps 748 mmHg 54%
    02:00 +20°C° 0 mm 3 mps 748 mmHg 56%
    03:00 +20°C° 0 mm 3 mps 748 mmHg 57%
    04:00 +19°C° 0 mm 3 mps 748 mmHg 58%
    05:00 +18°C° 0 mm 2 mps 748 mmHg 58%
    06:00 +20°C° 0 mm 3 mps 748 mmHg 54%
    07:00 +22°C° 0 mm 3 mps 748 mmHg 49%
    08:00 +25°C° 0 mm 4 mps 748 mmHg 44%
    09:00 +28°C° 0 mm 4 mps 748 mmHg 39%
    10:00 +30°C° 0 mm 5 mps 748 mmHg 33%
    11:00 +33°C° 0 mm 5 mps 748 mmHg 28%
    12:00 +34°C° 0 mm 5 mps 748 mmHg 27%
    13:00 +34°C° 0 mm 5 mps 747 mmHg 26%
    14:00 +35°C° 0 mm 5 mps 747 mmHg 24%
    15:00 +34°C° 0 mm 5 mps 747 mmHg 27%
    16:00 +33°C° 0 mm 4 mps 746 mmHg 29%
    17:00 +33°C° 0 mm 3 mps 746 mmHg 32%
    18:00 +30°C° 0 mm 4 mps 746 mmHg 34%
    19:00 +28°C° 0 mm 4 mps 746 mmHg 37%
    20:00 +27°C° 0 mm 4 mps 746 mmHg 40%
    21:00 +26°C° 0 mm 4 mps 746 mmHg 41%
    22:00 +25°C° 0 mm 4 mps 746 mmHg 43%
    23:00 +23°C° 0 mm 4 mps 746 mmHg 45%

    21 August, Monday

    Time Temperature Precipitation Wind Pressure Humidity
    00:00 +22°C° 0 mm 4 mps 745 mmHg 49%
    01:00 +22°C° 0 mm 3 mps 745 mmHg 53%
    02:00 +21°C° 0 mm 3 mps 745 mmHg 57%
    03:00 +21°C° 0 mm 3 mps 745 mmHg 58%
    04:00 +21°C° 0 mm 2 mps 744 mmHg 59%
    05:00 +20°C° 0 mm 2 mps 744 mmHg 60%
    06:00 +21°C° 0 mm 2 mps 744 mmHg 60%
    07:00 +21°C° 0 mm 2 mps 744 mmHg 60%
    08:00 +22°C° 0 mm 1 mps 744 mmHg 60%
    09:00 +24°C° 0 mm 2 mps 744 mmHg 55%
    10:00 +26°C° 0 mm 2 mps 744 mmHg 51%
    11:00 +27°C° 0 mm 2 mps 744 mmHg 46%
    12:00 +28°C° 0 mm 3 mps 744 mmHg 46%
    13:00 +28°C° 0 mm 3 mps 744 mmHg 46%
    14:00 +28°C° 0 mm 3 mps 743 mmHg 45%
    15:00 +27°C° 0 mm 4 mps 743 mmHg 52%
    16:00 +25°C° 0 mm 5 mps 743 mmHg 59%
    17:00 +22°C° 0 mm 6 mps 743 mmHg 65%
    18:00 +21°C° 0.3 mm 6 mps 743 mmHg 72%
    19:00 +19°C° 0.3 mm 5 mps 743 mmHg 79%
    20:00 +16°C° 0.3 mm 5 mps 743 mmHg 85%
    21:00 +15°C° 0.4 mm 5 mps 743 mmHg 86%
    22:00 +15°C° 0.4 mm 5 mps 743 mmHg 87%
    23:00 +14°C° 0.4 mm 5 mps 743 mmHg 89%

    22 August, Tuesday

    Time Temperature Precipitation Wind Pressure Humidity
    00:00 +14°C° 0.1 mm 5 mps 743 mmHg 88%
    01:00 +14°C° 0.1 mm 5 mps 743 mmHg 88%
    02:00 +14°C° 0.1 mm 5 mps 743 mmHg 87%
    03:00 +13°C° 0.1 mm 5 mps 743 mmHg 86%
    04:00 +13°C° 0.1 mm 5 mps 743 mmHg 86%
    05:00 +13°C° 0.1 mm 5 mps 743 mmHg 85%
    06:00 +14°C° 0 mm 5 mps 743 mmHg 81%
    07:00 +15°C° 0 mm 5 mps 743 mmHg 78%
    08:00 +15°C° 0 mm 5 mps 743 mmHg 74%
    09:00 +17°C° 0 mm 5 mps 743 mmHg 67%
    10:00 +19°C° 0 mm 5 mps 743 mmHg 61%
    11:00 +21°C° 0 mm 5 mps 744 mmHg 54%
    12:00 +22°C° 0 mm 5 mps 743 mmHg 50%
    13:00 +23°C° 0 mm 5 mps 743 mmHg 46%
    14:00 +25°C° 0 mm 5 mps 743 mmHg 43%
    15:00 +25°C° 0 mm 5 mps 743 mmHg 43%
    16:00 +25°C° 0 mm 5 mps 743 mmHg 44%
    17:00 +25°C° 0 mm 5 mps 743 mmHg 44%
    18:00 +22°C° 0 mm 4 mps 744 mmHg 51%
    19:00 +19°C° 0 mm 3 mps 744 mmHg 58%
    20:00 +17°C° 0 mm 3 mps 744 mmHg 65%
    21:00 +16°C° 0 mm 3 mps 744 mmHg 69%
    22:00 +16°C° 0 mm 2 mps 744 mmHg 73%
    23:00 +15°C° 0 mm 2 mps 744 mmHg 76%
    Show more